Year,Month,Day,Hour,Minute,Value (Times are PST for temperature in C)
2018,04,03,08,05,5.20
2018,04,03,08,06,5.20
2018,04,03,08,07,5.20
2018,04,03,08,08,5.20
2018,04,03,08,09,5.20
2018,04,03,08,10,5.20
2018,04,03,08,11,5.20
2018,04,03,08,12,5.20
2018,04,03,08,13,5.20
2018,04,03,08,14,5.20
2018,04,03,08,15,5.10
2018,04,03,08,16,5.20
2018,04,03,08,17,5.20
2018,04,03,08,18,5.20
2018,04,03,08,19,5.20
2018,04,03,08,20,5.20
2018,04,03,08,21,5.20
2018,04,03,08,22,5.20
2018,04,03,08,23,5.20
2018,04,03,08,24,5.20
2018,04,03,08,25,5.20
2018,04,03,08,26,5.20
2018,04,03,08,27,5.20
2018,04,03,08,28,5.20
2018,04,03,08,29,5.20
2018,04,03,11,18,6.90
2018,04,03,11,19,7.00
2018,04,03,11,20,7.00
2018,04,03,11,21,7.10
2018,04,03,11,22,7.10
2018,04,03,11,23,7.10
2018,04,03,11,24,7.10
2018,04,03,11,25,7.10
2018,04,03,11,26,7.10
2018,04,03,11,27,7.10
2018,04,03,11,28,7.10
2018,04,03,11,29,7.10
2018,04,03,11,30,7.10
2018,04,03,11,31,7.20
2018,04,03,11,32,7.20
2018,04,03,11,33,7.20
2018,04,03,11,34,7.30
2018,04,03,11,35,7.30
2018,04,03,11,36,7.30
2018,04,03,11,37,7.30
2018,04,03,11,38,7.30
2018,04,03,11,39,7.30
2018,04,03,11,40,7.30
2018,04,03,11,41,7.30
2018,04,03,11,42,7.40
2018,04,03,11,43,7.40
2018,04,03,11,44,7.50
2018,04,03,11,45,7.50
2018,04,03,11,46,7.40
2018,04,03,11,47,7.50
2018,04,03,11,48,7.50
2018,04,03,11,49,7.50
2018,04,03,11,50,7.60
2018,04,03,11,51,7.60
2018,04,03,11,52,7.70
2018,04,03,11,53,7.70
2018,04,03,11,54,7.70
2018,04,03,11,55,7.70
2018,04,03,11,56,7.60
2018,04,03,11,57,7.60
2018,04,03,11,58,7.60
2018,04,03,11,59,7.60
2018,04,03,12,00,7.60
2018,04,03,12,01,7.60
2018,04,03,12,02,7.50
2018,04,03,12,03,7.50
2018,04,03,12,04,7.50
2018,04,03,12,05,7.60
2018,04,03,12,06,7.60
2018,04,03,12,07,7.60
2018,04,03,12,08,7.60
2018,04,03,12,09,7.60
2018,04,03,12,10,7.70
2018,04,03,12,11,7.70
2018,04,03,12,12,7.70
2018,04,03,12,13,7.70
2018,04,03,12,14,7.80
2018,04,03,12,15,7.80
2018,04,03,12,16,7.90
2018,04,03,12,17,7.90
2018,04,03,12,18,7.90
2018,04,03,12,19,7.90
2018,04,03,12,20,8.00
2018,04,03,12,21,8.00
2018,04,03,12,22,8.10
2018,04,03,12,23,8.10
2018,04,03,12,24,8.10
2018,04,03,12,25,8.20
2018,04,03,12,26,8.20
2018,04,03,12,27,8.30
2018,04,03,12,28,8.30
2018,04,03,12,29,8.20
2018,04,03,12,30,8.20
2018,04,03,12,31,8.20
2018,04,03,12,32,8.20
2018,04,03,12,33,8.20
2018,04,03,12,34,8.20
2018,04,03,12,35,8.20
2018,04,03,12,36,8.20
2018,04,03,12,37,8.20
2018,04,03,12,38,8.20
2018,04,03,12,39,8.20
2018,04,03,12,40,8.30
2018,04,03,12,41,8.30
2018,04,03,12,42,8.30
2018,04,03,12,43,8.20
2018,04,03,12,44,8.20
2018,04,03,12,45,8.20
2018,04,03,12,46,8.20
2018,04,03,12,47,8.20
2018,04,03,12,48,8.20
2018,04,03,12,49,8.30
2018,04,03,12,50,8.30
2018,04,03,12,51,8.40
2018,04,03,12,52,8.50
2018,04,03,12,53,8.50
2018,04,03,12,54,8.60
2018,04,03,12,55,8.60
2018,04,03,12,56,8.60
2018,04,03,12,57,8.60
2018,04,03,12,58,8.50
2018,04,03,12,59,8.60
2018,04,03,13,00,8.60
2018,04,03,13,01,8.60
2018,04,03,13,02,8.60
2018,04,03,13,03,8.50
2018,04,03,13,04,8.60
2018,04,03,13,05,8.70
2018,04,03,13,06,8.70
2018,04,03,13,07,8.70
2018,04,03,13,08,8.70
2018,04,03,13,09,8.70
2018,04,03,13,10,8.70
2018,04,03,13,11,8.60
2018,04,03,13,12,8.50
2018,04,03,13,13,8.50
2018,04,03,13,14,8.50
2018,04,03,13,15,8.40
2018,04,03,13,16,8.50
2018,04,03,13,17,8.40
2018,04,03,13,18,8.40
2018,04,03,13,19,8.40
2018,04,03,13,20,8.50
2018,04,03,13,21,8.50
2018,04,03,13,22,8.50
2018,04,03,13,23,8.50
2018,04,03,13,24,8.50
2018,04,03,13,25,8.50
2018,04,03,13,26,8.50
2018,04,03,13,27,8.50
2018,04,03,13,28,8.50
2018,04,03,13,29,8.50
2018,04,03,13,30,8.50
2018,04,03,13,31,8.60
2018,04,03,13,32,8.60
2018,04,03,13,33,8.80
2018,04,03,13,34,8.80
2018,04,03,13,35,9.00
2018,04,03,13,36,9.10
2018,04,03,13,37,9.20
2018,04,03,13,38,9.30
2018,04,03,13,39,9.40
2018,04,03,13,40,9.50
2018,04,03,13,41,9.70
2018,04,03,13,42,9.80
2018,04,03,13,43,9.90
2018,04,03,13,44,9.90
2018,04,03,13,45,9.80
2018,04,03,13,46,9.80
2018,04,03,13,47,9.80
2018,04,03,13,48,9.90
2018,04,03,13,49,9.90
2018,04,03,13,50,9.90
2018,04,03,13,51,9.90
2018,04,03,13,52,9.90
2018,04,03,13,53,9.90
2018,04,03,13,54,9.90
2018,04,03,13,55,9.90
2018,04,03,13,56,9.90
2018,04,03,13,57,9.80
2018,04,03,13,58,9.80
2018,04,03,13,59,9.70
2018,04,03,14,00,9.60
2018,04,03,14,01,9.50
2018,04,03,14,02,9.60
2018,04,03,14,03,9.50
2018,04,03,14,04,9.50
2018,04,03,14,05,9.40
2018,04,03,14,06,9.30
2018,04,03,14,07,9.30
2018,04,03,14,08,9.30
2018,04,03,14,09,9.30
2018,04,03,14,10,9.40
2018,04,03,14,11,9.30
2018,04,03,14,12,9.20
2018,04,03,14,13,9.20
2018,04,03,14,14,9.20
2018,04,03,14,15,9.20
2018,04,03,14,16,9.20
2018,04,03,14,17,9.30
2018,04,03,14,18,9.30
2018,04,03,14,19,9.20
2018,04,03,14,20,9.20
2018,04,03,14,21,9.20
2018,04,03,14,22,9.10
2018,04,03,14,23,9.10
2018,04,03,14,24,9.00
2018,04,03,14,25,9.10
2018,04,03,14,26,9.10
2018,04,03,14,27,9.20
2018,04,03,14,28,9.30
2018,04,03,14,29,9.50
2018,04,03,14,30,9.50
2018,04,03,14,31,9.60
2018,04,03,14,32,9.70
2018,04,03,14,33,9.70
2018,04,03,14,34,9.70
2018,04,03,14,35,9.80
2018,04,03,14,36,9.80
2018,04,03,14,37,9.90
2018,04,03,14,38,10.00
2018,04,03,14,39,10.10
2018,04,03,14,40,10.10
2018,04,03,14,41,10.00
2018,04,03,14,42,9.90
2018,04,03,14,43,9.70
2018,04,03,14,44,9.60
2018,04,03,14,45,9.60
2018,04,03,14,46,9.50
2018,04,03,14,47,9.50
2018,04,03,14,48,9.50
2018,04,03,14,49,9.50
2018,04,03,14,50,9.40
2018,04,03,14,51,9.50
2018,04,03,14,52,9.50
2018,04,03,14,53,9.60
2018,04,03,14,54,9.70
2018,04,03,14,55,9.70
2018,04,03,14,56,9.70
2018,04,03,14,57,9.70
2018,04,03,14,58,9.70
2018,04,03,14,59,9.70
2018,04,03,15,00,9.80
2018,04,03,15,01,9.80
2018,04,03,15,02,9.80
2018,04,03,15,03,9.80
2018,04,03,15,04,9.70
2018,04,03,15,05,9.70
2018,04,03,15,06,9.70
2018,04,03,15,07,9.80
2018,04,03,15,08,9.80
2018,04,03,15,09,9.90
2018,04,03,15,10,10.00
2018,04,03,15,11,10.10
2018,04,03,15,12,10.10
2018,04,03,15,13,10.10
2018,04,03,15,14,10.10
2018,04,03,15,15,10.10
2018,04,03,15,16,10.10
2018,04,03,15,17,10.00
2018,04,03,15,18,9.90
2018,04,03,15,19,9.90
2018,04,03,15,20,9.90
2018,04,03,15,21,9.90
2018,04,03,15,22,9.90
2018,04,03,15,23,10.00
2018,04,03,15,24,10.00
2018,04,03,15,25,10.00
2018,04,03,15,26,10.00
2018,04,03,15,27,10.00
2018,04,03,15,28,10.10
2018,04,03,15,29,10.10
2018,04,03,15,30,10.10
2018,04,03,15,31,10.20
2018,04,03,15,32,10.10
2018,04,03,15,33,10.10
2018,04,03,15,34,10.00
2018,04,03,15,35,10.00
2018,04,03,15,36,9.80
2018,04,03,15,37,9.70
2018,04,03,15,38,9.60
2018,04,03,15,39,9.50
2018,04,03,15,40,9.40
2018,04,03,15,41,9.40
2018,04,03,15,42,9.40
2018,04,03,15,43,9.30
2018,04,03,15,44,9.30
2018,04,03,15,45,9.30
2018,04,03,15,46,9.40
2018,04,03,15,47,9.40
2018,04,03,15,48,9.50
2018,04,03,15,49,9.50
2018,04,03,15,50,9.60
2018,04,03,15,51,9.60
2018,04,03,15,52,9.60
2018,04,03,15,53,9.60
2018,04,03,15,54,9.50
2018,04,03,15,55,9.40
2018,04,03,15,56,9.40
2018,04,03,15,57,9.40
2018,04,03,15,58,9.40
2018,04,03,15,59,9.40
2018,04,03,16,00,9.40
2018,04,03,16,01,9.40
2018,04,03,16,02,9.50
2018,04,03,16,03,9.40
2018,04,03,16,04,9.40
2018,04,03,16,05,9.40
2018,04,03,16,06,9.40
2018,04,03,16,07,9.40
2018,04,03,16,08,9.40
2018,04,03,16,09,9.40
2018,04,03,16,10,9.30
2018,04,03,16,11,9.20
2018,04,03,16,12,9.10
2018,04,03,16,13,9.10
2018,04,03,16,14,9.00
2018,04,03,16,15,9.00
2018,04,03,16,16,9.00
2018,04,03,16,17,8.90
2018,04,03,16,18,8.90
2018,04,03,16,19,8.90
2018,04,03,16,20,8.90
2018,04,03,16,21,9.00
2018,04,03,16,22,9.00
2018,04,03,16,23,9.00
2018,04,03,16,24,9.00
2018,04,03,16,25,9.10
2018,04,03,16,26,9.10
2018,04,03,16,27,9.10
2018,04,03,16,28,9.10
2018,04,03,16,29,9.20
2018,04,03,16,30,9.20
2018,04,03,16,31,9.20
2018,04,03,16,32,9.20
2018,04,03,16,33,9.20
2018,04,03,16,34,9.20
2018,04,03,16,35,9.20
2018,04,03,16,36,9.10
2018,04,03,16,37,9.10
2018,04,03,16,38,9.10
2018,04,03,16,39,9.10
2018,04,03,16,40,9.10
2018,04,03,16,41,9.10
2018,04,03,16,42,9.10
2018,04,03,16,43,9.00
2018,04,03,16,44,9.00
2018,04,03,16,45,8.90
2018,04,03,16,46,8.90
2018,04,03,16,47,8.90
2018,04,03,16,48,8.80
2018,04,03,16,49,8.80
2018,04,03,16,50,8.80
2018,04,03,16,51,8.90
2018,04,03,16,52,8.90
2018,04,03,16,53,8.90
2018,04,03,16,54,8.80
2018,04,03,16,55,8.90
2018,04,03,16,56,8.90
2018,04,03,16,57,8.90
2018,04,03,16,58,8.90
2018,04,03,16,59,8.90
2018,04,03,17,00,8.90
2018,04,03,17,01,8.90
2018,04,03,17,02,8.90
2018,04,03,17,03,8.90
2018,04,03,17,04,8.90
2018,04,03,17,05,8.90
2018,04,03,17,06,8.90
2018,04,03,17,07,8.90
2018,04,03,17,08,8.90
2018,04,03,17,09,8.90
2018,04,03,17,10,8.90
2018,04,03,17,11,8.90
2018,04,03,17,12,8.90
2018,04,03,17,13,8.80
2018,04,03,17,14,8.80
2018,04,03,17,15,8.80
2018,04,03,17,16,8.80
2018,04,03,17,17,8.80
2018,04,03,17,18,8.80
2018,04,03,17,19,8.80
2018,04,03,17,20,8.80
2018,04,03,17,21,8.80
2018,04,03,17,22,8.80
2018,04,03,17,23,8.80
2018,04,03,17,24,8.80
2018,04,03,17,25,8.80
2018,04,03,17,26,8.80
2018,04,03,17,27,8.80
2018,04,03,17,28,8.90
2018,04,03,17,29,8.90
2018,04,03,17,30,8.90
2018,04,03,17,31,8.90
2018,04,03,17,32,8.90
2018,04,03,17,33,8.90
2018,04,03,17,34,8.90
2018,04,03,17,35,8.90
2018,04,03,17,36,8.90
2018,04,03,17,37,8.90
2018,04,03,17,38,8.80
2018,04,03,17,39,8.80
2018,04,03,17,40,8.80
2018,04,03,17,41,8.90
2018,04,03,17,42,8.90
2018,04,03,17,43,8.90
2018,04,03,17,44,8.80
2018,04,03,17,45,8.80
2018,04,03,17,46,8.80
2018,04,03,17,47,8.80
2018,04,03,17,48,8.80
2018,04,03,17,49,8.80
2018,04,03,17,50,8.80
2018,04,03,17,51,8.80
2018,04,03,17,52,8.80
2018,04,03,17,53,8.80
2018,04,03,17,54,8.90
2018,04,03,17,55,8.90
2018,04,03,17,56,8.90
2018,04,03,17,57,9.00
2018,04,03,17,58,9.00
2018,04,03,17,59,9.00
2018,04,03,18,00,9.00
2018,04,03,18,01,9.00
2018,04,03,18,02,9.00
2018,04,03,18,03,9.00
2018,04,03,18,04,9.00
2018,04,03,18,05,9.00
2018,04,03,18,06,9.00
2018,04,03,18,07,9.00
2018,04,03,18,08,9.00
2018,04,03,18,09,9.00
2018,04,03,18,10,8.90
2018,04,03,18,11,9.00
2018,04,03,18,12,9.00
2018,04,03,18,13,9.00
2018,04,03,18,14,9.00
2018,04,03,18,15,8.90
2018,04,03,18,16,8.90
2018,04,03,18,17,8.90
2018,04,03,18,18,8.90
2018,04,03,18,19,8.90
2018,04,03,18,20,8.90
2018,04,03,18,21,9.00
2018,04,03,18,22,9.00
2018,04,03,18,23,8.90
2018,04,03,18,24,8.90
2018,04,03,18,25,8.90
2018,04,03,18,26,8.90
2018,04,03,18,27,8.90
2018,04,03,18,28,8.90
2018,04,03,18,29,8.90
2018,04,03,18,30,8.90
2018,04,03,18,31,8.90
2018,04,03,18,32,8.90
2018,04,03,18,33,8.80
2018,04,03,18,34,8.80
2018,04,03,18,35,8.80
2018,04,03,18,36,8.70
2018,04,03,18,37,8.70
2018,04,03,18,38,8.70
2018,04,03,18,39,8.70
2018,04,03,18,40,8.70
2018,04,03,18,41,8.70
2018,04,03,18,42,8.70
2018,04,03,18,43,8.60
2018,04,03,18,44,8.60
2018,04,03,18,45,8.60
2018,04,03,18,46,8.60
2018,04,03,18,47,8.60
2018,04,03,18,48,8.60
2018,04,03,18,49,8.60
2018,04,03,18,50,8.60
2018,04,03,18,51,8.60
2018,04,03,18,52,8.60
2018,04,03,18,53,8.60
2018,04,03,18,54,8.60
2018,04,03,18,55,8.50
2018,04,03,18,56,8.50
2018,04,03,18,57,8.40
2018,04,03,18,58,8.40
2018,04,03,18,59,8.40
2018,04,03,19,00,8.40
2018,04,03,19,01,8.40
2018,04,03,19,02,8.30
2018,04,03,19,03,8.30
2018,04,03,19,04,8.30
2018,04,03,19,05,8.30
2018,04,03,19,06,8.30
2018,04,03,19,07,8.30
2018,04,03,19,08,8.20
2018,04,03,19,09,8.20
2018,04,03,19,10,8.20
2018,04,03,19,11,8.20
2018,04,03,19,12,8.20
2018,04,03,19,13,8.20
2018,04,03,19,14,8.10
2018,04,03,19,15,8.10
2018,04,03,19,16,8.10
2018,04,03,19,17,8.10
2018,04,03,19,18,8.10
2018,04,03,19,19,8.10
2018,04,03,19,20,8.10
2018,04,03,19,21,8.00
2018,04,03,19,22,8.00
2018,04,03,19,23,7.90
2018,04,03,19,24,7.90
2018,04,03,19,25,7.90
2018,04,03,19,26,7.80
2018,04,03,19,27,7.80
2018,04,03,19,28,7.80
2018,04,03,19,29,7.80
2018,04,03,19,30,7.70
2018,04,03,19,31,7.70
2018,04,03,19,32,7.70
2018,04,03,19,33,7.60
2018,04,03,19,34,7.60
2018,04,03,19,35,7.60
2018,04,03,19,36,7.50
2018,04,03,19,37,7.40
2018,04,03,19,38,7.40
2018,04,03,19,39,7.40
2018,04,03,19,40,7.30
2018,04,03,19,41,7.30
2018,04,03,19,42,7.20
2018,04,03,19,43,7.20
2018,04,03,19,44,7.20
2018,04,03,19,45,7.10
2018,04,03,19,46,7.10
2018,04,03,19,47,7.00
2018,04,03,19,48,7.00
2018,04,03,19,49,6.90
2018,04,03,19,50,6.90
2018,04,03,19,51,6.80
2018,04,03,19,52,6.80
2018,04,03,19,53,6.70
2018,04,03,19,54,6.70
2018,04,03,19,55,6.60
2018,04,03,19,56,6.60
2018,04,03,19,57,6.50
2018,04,03,19,58,6.50
2018,04,03,19,59,6.40
2018,04,03,20,00,6.40
2018,04,03,20,01,6.40
2018,04,03,20,02,6.30
2018,04,03,20,03,6.30
2018,04,03,20,04,6.30
2018,04,03,20,05,6.20
2018,04,03,20,06,6.20
2018,04,03,20,07,6.20
2018,04,03,20,08,6.20
2018,04,03,20,09,6.10
2018,04,03,20,10,6.10
2018,04,03,20,11,6.10
2018,04,03,20,12,6.00
2018,04,03,20,13,6.00
2018,04,03,20,14,5.90
2018,04,03,20,15,5.90
2018,04,03,20,16,5.90
2018,04,03,20,17,5.90
2018,04,03,20,18,5.80
2018,04,03,20,19,5.80
2018,04,03,20,20,5.80
2018,04,03,20,21,5.80
2018,04,03,20,22,5.80
2018,04,03,20,23,5.80
2018,04,03,20,24,5.70
2018,04,03,20,25,5.70
2018,04,03,20,26,5.70
2018,04,03,20,27,5.70
2018,04,03,20,28,5.70
2018,04,03,20,29,5.70
2018,04,03,20,30,5.70
2018,04,03,20,31,5.70
2018,04,03,20,32,5.70
2018,04,03,20,33,5.70
2018,04,03,20,34,5.70
2018,04,03,20,35,5.70
2018,04,03,20,36,5.70
2018,04,03,20,37,5.70
2018,04,03,20,38,5.70
2018,04,03,20,39,5.70
2018,04,03,20,40,5.70
2018,04,03,20,41,5.70
2018,04,03,20,42,5.70
2018,04,03,20,43,5.70
